KO6TH-15 Weather Reports


time (UTC)temp
C
wind
direction
speed
KPH
gust
KPH
rain 1hr
cm
rain 24hr
cm
rain mn
cm
humidity
%
barometer
mb
20260902083515 13 0 4.8 0.0 0.00 0.00 0.00 84
20260902082515 13 0 6.4 0.0 0.00 0.00 0.00 83
20260902081515 13 0 3.2 0.0 0.00 0.00 0.00 83
20260902080515 13 0 1.6 0.0 0.00 0.00 0.00 82
20260902075515 13 0 3.2 0.0 0.00 0.00 0.00 82
20260902074515 13 0 3.2 0.0 0.00 0.00 0.00 82
20260902073515 13 0 3.2 0.0 0.00 0.00 0.00 81
20260902072515 13 0 3.2 0.0 0.00 0.00 0.00 81
20260902071515 13 0 3.2 0.0 0.00 0.00 0.00 80
20260902070445 13 0 3.2 0.0 0.00 0.00 0.00 80
20260902065445 13 0 3.2 0.0 0.00 0.00 0.00 79
20260902064415 14 0 3.2 0.0 0.00 0.00 0.00 79
20260902063415 14 0 4.8 0.0 0.00 0.00 0.00 78
20260902062345 14 0 3.2 0.0 0.00 0.00 0.00 78
20260902061345 14 0 4.8 0.0 0.00 0.00 0.00 78
20260902060315 14 0 4.8 0.0 0.00 0.00 0.00 78
20260902055315 14 0 4.8 0.0 0.00 0.00 0.00 77
20260902054245 15 0 3.2 0.0 0.00 0.00 0.00 77
20260902053245 15 0 3.2 0.0 0.00 0.00 0.00 77
20260902052215 15 0 3.2 0.0 0.00 0.00 0.00 76
20260902051215 15 0 0.0 0.0 0.00 0.00 0.00 75
20260902050145 15 0 1.6 0.0 0.00 0.00 0.00 73
20260902045145 15 0 1.6 0.0 0.00 0.00 0.00 72
20260902044115 15 0 1.6 0.0 0.00 0.00 0.00 71
20260902043045 15 0 1.6 0.0 0.00 0.00 0.00 70
20260902042015 16 0 1.6 0.0 0.00 0.00 0.00 68
20260902041015 16 0 0.0 0.0 0.00 0.00 0.00 67
20260902035945 16 0 0.0 0.0 0.00 0.00 0.00 66
20260902034945 16 0 4.8 0.0 0.00 0.00 0.00 65
20260902033915 17 0 3.2 0.0 0.00 0.00 0.00 64
20260902032915 17 0 3.2 0.0 0.00 0.00 0.00 63
20260902031915 17 0 3.2 0.0 0.00 0.00 0.00 62
20260902030915 17 0 3.2 0.0 0.00 0.00 0.00 61
20260902025845 18 0 6.4 0.0 0.00 0.00 0.00 61
20260902024815 18 0 6.4 0.0 0.00 0.00 0.00 60
20260902023745 18 0 3.2 0.0 0.00 0.00 0.00 58
20260902022745 19 0 8.0 0.0 0.00 0.00 0.00 56
20260902021715 19 0 4.8 0.0 0.00 0.00 0.00 55
20260902020715 20 0 1.6 0.0 0.00 0.00 0.00 53
20260902015715 20 0 6.4 0.0 0.00 0.00 0.00 53
20260902014715 21 0 1.6 0.0 0.00 0.00 0.00 51
20260902013645 21 0 16.1 0.0 0.00 0.00 0.00 49
20260902012645 21 0 4.8 0.0 0.00 0.00 0.00 49
20260902011615 21 0 4.8 0.0 0.00 0.00 0.00 49
20260902010545 21 0 6.4 0.0 0.00 0.00 0.00 48
20260902005545 22 0 6.4 0.0 0.00 0.00 0.00 45
20260902004545 22 0 6.4 0.0 0.00 0.00 0.00 45
20260902003515 22 0 6.4 0.0 0.00 0.00 0.00 46
20260902002445 23 0 6.4 0.0 0.00 0.00 0.00 45
20260902001445 25 0 4.8 0.0 0.00 0.00 0.00 45
20260902000415 25 0 3.2 0.0 0.00 0.00 0.00 45
20260901235415 26 0 11.3 0.0 0.00 0.00 0.00 43
20260901234415 26 0 4.8 0.0 0.00 0.00 0.00 44
20260901233415 26 0 12.9 0.0 0.00 0.00 0.00 42
20260901232416 26 0 6.4 0.0 0.00 0.00 0.00 43
20260901231345 26 0 11.3 0.0 0.00 0.00 0.00 44
20260901230315 25 0 4.8 0.0 0.00 0.00 0.00 46
20260901225315 26 0 8.0 0.0 0.00 0.00 0.00 45
20260901224245 25 0 8.0 0.0 0.00 0.00 0.00 46
20260901223215 25 0 17.7 0.0 0.00 0.00 0.00 45
20260901222145 25 0 3.2 0.0 0.00 0.00 0.00 46
20260901221115 24 0 11.3 0.0 0.00 0.00 0.00 47
20260901220045 24 0 8.0 0.0 0.00 0.00 0.00 48
20260901215015 25 0 8.0 0.0 0.00 0.00 0.00 47
20260901214015 25 0 11.3 0.0 0.00 0.00 0.00 47
20260901212945 26 0 3.2 0.0 0.00 0.00 0.00 45
20260901211915 24 0 9.7 0.0 0.00 0.00 0.00 49
20260901210915 23 0 0.0 0.0 0.00 0.00 0.00 52
20260901205845 23 0 14.5 0.0 0.00 0.00 0.00 50
20260901204845 23 0 9.7 0.0 0.00 0.00 0.00 52
20260901203815 22 0 4.8 0.0 0.00 0.00 0.00 54
20260901202815 22 0 3.2 0.0 0.00 0.00 0.00 55
20260901201815 22 0 4.8 0.0 0.00 0.00 0.00 56
20260901200815 22 0 1.6 0.0 0.00 0.00 0.00 55
20260901195815 23 0 3.2 0.0 0.00 0.00 0.00 53
20260901194745 22 0 4.8 0.0 0.00 0.00 0.00 55
20260901193715 21 0 9.7 0.0 0.00 0.00 0.00 57
20260901192645 21 0 3.2 0.0 0.00 0.00 0.00 57
20260901191645 21 0 14.5 0.0 0.00 0.00 0.00 58
20260901190615 20 0 8.0 0.0 0.00 0.00 0.00 59
20260901185615 20 0 3.2 0.0 0.00 0.00 0.00 59
20260901184615 20 0 6.4 0.0 0.00 0.00 0.00 60
20260901183545 20 0 8.0 0.0 0.00 0.00 0.00 60
20260901182545 20 0 6.4 0.0 0.00 0.00 0.00 59
20260901181515 20 0 9.7 0.0 0.00 0.00 0.00 61
20260901180445 18 0 8.0 0.0 0.00 0.00 0.00 64
20260901175415 19 0 6.4 0.0 0.00 0.00 0.00 64
20260901174345 18 0 3.2 0.0 0.00 0.00 0.00 66
20260901173345 17 0 3.2 0.0 0.00 0.00 0.00 69
20260901172345 17 0 6.4 0.0 0.00 0.00 0.00 70
20260901171315 16 0 8.0 0.0 0.00 0.00 0.00 73
20260901170245 16 0 6.4 0.0 0.00 0.00 0.00 72
20260901165215 16 0 6.4 0.0 0.00 0.00 0.00 73
20260901164145 15 0 9.7 0.0 0.00 0.00 0.00 75
20260901163145 15 0 4.8 0.0 0.00 0.00 0.00 76
20260901162115 15 0 4.8 0.0 0.00 0.00 0.00 76
20260901161045 15 0 6.4 0.0 0.00 0.00 0.00 76
20260901160015 15 0 11.3 0.0 0.00 0.00 0.00 77
20260901155015 15 0 9.7 0.0 0.00 0.00 0.00 78
20260901154015 15 0 11.3 0.0 0.00 0.00 0.00 78
20260901153015 14 0 3.2 0.0 0.00 0.00 0.00 80
20260901151945 14 0 11.3 0.0 0.00 0.00 0.00 81
20260901150945 13 0 4.8 0.0 0.00 0.00 0.00 82
20260901145945 13 0 6.4 0.0 0.00 0.00 0.00 83
20260901144945 13 0 6.4 0.0 0.00 0.00 0.00 85
20260901143950 13 0 6.4 0.0 0.00 0.00 0.00 87
20260901143915 13 0 6.4 0.0 0.00 0.00 0.00 87
20260901142915 13 0 4.8 0.0 0.00 0.00 0.00 87
20260901141845 13 0 6.4 0.0 0.00 0.00 0.00 88
20260901140845 12 0 4.8 0.0 0.00 0.00 0.00 89
20260901135815 12 0 4.8 0.0 0.00 0.00 0.00 89
20260901134815 12 0 6.4 0.0 0.00 0.00 0.00 89
20260901133745 12 0 4.8 0.0 0.00 0.00 0.00 90
20260901132745 12 0 6.4 0.0 0.00 0.00 0.00 90
20260901131745 12 0 4.8 0.0 0.00 0.00 0.00 90
20260901130745 12 0 9.7 0.0 0.00 0.00 0.00 90
20260901125745 12 0 6.4 0.0 0.00 0.00 0.00 90
20260901124715 12 0 3.2 0.0 0.00 0.00 0.00 90
20260901123715 12 0 9.7 0.0 0.00 0.00 0.00 90
20260901122715 12 0 8.0 0.0 0.00 0.00 0.00 90
20260901121645 12 0 4.8 0.0 0.00 0.00 0.00 90
20260901120615 12 0 3.2 0.0 0.00 0.00 0.00 91
20260901115545 12 0 4.8 0.0 0.00 0.00 0.00 91
20260901114545 12 0 3.2 0.0 0.00 0.00 0.00 91
20260901113515 12 0 3.2 0.0 0.00 0.00 0.00 91
20260901112445 12 0 8.0 0.0 0.00 0.00 0.00 92
20260901111415 12 0 6.4 0.0 0.00 0.00 0.00 92
20260901110415 12 0 3.2 0.0 0.00 0.00 0.00 92
20260901105345 12 0 4.8 0.0 0.00 0.00 0.00 92
20260901104315 12 0 4.8 0.0 0.00 0.00 0.00 92
20260901103315 12 0 9.7 0.0 0.00 0.00 0.00 92
20260901102245 12 0 3.2 0.0 0.00 0.00 0.00 92
20260901101215 12 0 4.8 0.0 0.00 0.00 0.00 92
20260901100145 12 0 3.2 0.0 0.00 0.00 0.00 92
20260901095145 12 0 8.0 0.0 0.00 0.00 0.00 91
20260901094115 12 0 6.4 0.0 0.00 0.00 0.00 91
20260901093045 12 0 6.4 0.0 0.00 0.00 0.00 90
20260901092045 12 0 4.8 0.0 0.00 0.00 0.00 90
20260901091045 12 0 4.8 0.0 0.00 0.00 0.00 89
20260901090015 12 0 3.2 0.0 0.00 0.00 0.00 89
20260901084945 12 0 6.4 0.0 0.00 0.00 0.00 89
20260901083945 12 0 6.4 0.0 0.00 0.00 0.00 88